Flag for U.S.A. Weather past 2 weeks in Lancaster, California, U.S.A.

Now
69 °F

Clear.


Feels Like: 69 °F
Forecast: 60 / 89 °F
Wind: 14 mph from West

Location: Lancaster / Fox Field

Current Time: May 27, 2015 at 11:53:44 PM

Latest Report: May 27, 2015 at 10:56 PM


Visibility: 10 mi

Pressure: 29.92 "Hg

Humidity: 39%

Dew point: 43 °F

Location of LancasterLocation

Historic Weather in Lancaster — Graph

°F

Lancaster temperature yesterday

Maximum temperature yesterday: 82 °F (at 2:56 PM)
Minimum temperature yesterday: 55 °F (at 5:56 AM)
Average temperature yesterday: 68 °F

Past Weeks' High & Low Weather Summary

 TemperatureHumidityPressure
High86 °F (May 27, 1:56 PM)89% (May 14, 9:03 PM)30.03 "Hg (May 14, 9:03 PM)
Low44 °F (May 15, 2:56 AM)16% (May 27, 12:56 PM)29.82 "Hg (May 15, 3:56 PM)
Average61 °F54%29.91 "Hg
* Reported May 12 10:56 PM — May 27 10:56 PM, Lancaster, Weather by CustomWeather, © 2015

Note: Actual official high and low records may vary slightly from our data, if they occured in-between our weather recording intervals... More about our weather records

Advertising

Lancaster weather history for previous 24 hours

 ConditionsComfort  
Time TempWeatherWind HumidityBarometerVisibility
10:56 PM
Wed, May 27
69 °FClear.14 mph39%29.92 "Hg10 mi
9:56 PM69 °FClear.13 mph38%29.93 "Hg10 mi
8:56 PM69 °FSunny.13 mph38%29.92 "Hg10 mi
7:56 PM71 °FSunny.20 mph39%29.91 "Hg10 mi
6:56 PM75 °FSunny.26 mph33%29.89 "Hg10 mi
5:56 PM79 °FSunny.23 mph28%29.88 "Hg10 mi
4:56 PM85 °FSunny.23 mph20%29.86 "Hg10 mi
3:56 PM86 °FSunny.18 mph20%29.86 "Hg10 mi
2:56 PM86 °FSunny.18 mph17%29.86 "Hg10 mi
1:56 PM86 °FSunny.No wind17%29.87 "Hg10 mi
12:56 PM85 °FSunny.No wind16%29.89 "Hg10 mi
11:56 AM83 °FSunny.3 mph23%29.90 "Hg10 mi
10:56 AM80 °FSunny.3 mph27%29.92 "Hg10 mi
9:56 AM76 °FSunny.No wind33%29.92 "Hg10 mi
8:56 AM73 °FSunny.5 mph37%29.93 "Hg10 mi
7:56 AM66 °FSunny.No wind49%29.93 "Hg10 mi
6:56 AM62 °FSunny.No wind56%29.92 "Hg10 mi
5:56 AM57 °FClear.5 mph64%29.92 "Hg10 mi
4:56 AM59 °FClear.7 mph60%29.91 "Hg10 mi
3:56 AM59 °FClear.6 mph60%29.90 "Hg10 mi
2:56 AM62 °FClear.10 mph54%29.90 "Hg10 mi
1:56 AM62 °FClear.14 mph56%29.89 "Hg10 mi
12:56 AM62 °FClear.15 mph52%29.90 "Hg10 mi
11:56 PM
Tue, May 26
62 °FClear.9 mph44%29.91 "Hg10 mi
Weather by CustomWeather, © 2015

See weather overviewHow to use our weather pages